This is the latest recevied weather packets stored in our database for station/object HB9FHL-13. If no packets are shown the sender has not sent any weather packets the latest 10 day(s).
| Time | Temp. | Humidity | Pressure | Rain* | Wind** | Luminosity | Snow |
|---|---|---|---|---|---|---|---|
| 1777593471 | 9.44° C | - | 1025 hPa | 0 mm | - | - | - |
| 1777593171 | 8.89° C | - | 1021.6 hPa | 0 mm | - | - | - |
| 1777592870 | 8.89° C | - | 1023.1 hPa | 0 mm | - | - | - |
| 1777592570 | 10° C | - | 1026.3 hPa | 0 mm | - | - | - |
| 1777592269 | 9.44° C | - | 1024.7 hPa | 0 mm | - | - | - |
| 1777591970 | 9.44° C | - | 1025.9 hPa | 0 mm | - | - | - |
| 1777591666 | 9.44° C | - | 1023.1 hPa | 0 mm | - | - | - |
| 1777591366 | 9.44° C | - | 1023.2 hPa | 0 mm | - | - | - |
| 1777591065 | 8.89° C | - | 1026 hPa | 0 mm | - | - | - |
| 1777590765 | 9.44° C | - | 1023.8 hPa | 0 mm | - | - | - |
| 1777590464 | 10° C | - | 1020.7 hPa | 0 mm | - | - | - |
| 1777590164 | 9.44° C | - | 1024.9 hPa | 0 mm | - | - | - |
| 1777589863 | 10° C | - | 1027.3 hPa | 0 mm | - | - | - |
| 1777589563 | 10.56° C | - | 1022.6 hPa | 0 mm | - | - | - |
| 1777589262 | 10° C | - | 1022.6 hPa | 0 mm | - | - | - |
| 1777588960 | 10° C | - | 1025.3 hPa | 0 mm | - | - | - |
| 1777588658 | 9.44° C | - | 1023.7 hPa | 0 mm | - | - | - |
| 1777588358 | 10° C | - | 1019.5 hPa | 0 mm | - | - | - |
| 1777588057 | 10.56° C | - | 1023.8 hPa | 0 mm | - | - | - |
| 1777587757 | 10.56° C | - | 1025 hPa | 0 mm | - | - | - |
| 1777587456 | 10° C | - | 1022.5 hPa | 0 mm | - | - | - |
| 1777587156 | 10° C | - | 1022.4 hPa | 0 mm | - | - | - |
| 1777586855 | 10° C | - | 1023.6 hPa | 0 mm | - | - | - |
| 1777586555 | 10.56° C | - | 1023 hPa | 0 mm | - | - | - |
| 1777586254 | 10° C | - | 1021.2 hPa | 0 mm | - | - | - |
* Rain since midnight (hover to see other rain measurements)
** Current wind speed in m/s (hover to see current wind gust speed)